Terminal Aerodrome Forecast
Issued by NWS

Home | Current Version | Previous Version | Text Only | Print | Product List | Glossary On
Versions: 1 2 3 4 5 6 7 8 9 10 11 12 13 14 15 16 17 18 19 20 21 22 23 24 25 26 27 28 29 30 31 32 33 34 35 36 37 38 39 40 41 42 43 44 45 46 47 48 49 50
000
FTUS44 KHGX 260520
TAFUTS
TAF
KUTS 260520Z 2606/2706 VRB05KT P6SM SKC
     FM260900 15003KT 6SM BR SCT010
      TEMPO 2610/2613 4SM BR BKN003
     FM261400 17007KT P6SM SCT020
      TEMPO 2615/2617 BKN020
     FM261700 18012KT P6SM SCT030
     FM262100 18013KT P6SM BKN035
     FM270300 17011KT P6SM OVC015=

USA.gov is the U.S. government's official web portal to all federal, state and local government web resources and services.